CDT,Max TemperatureF,Mean TemperatureF,Min TemperatureF,Max Dew PointF,MeanDew PointF,Min DewpointF,Max Humidity, Mean Humidity, Min Humidity, Max Sea Level PressureIn, Mean Sea Level PressureIn, Min Sea Level PressureIn, Max VisibilityMiles, Mean VisibilityMiles, Min VisibilityMiles, Max Wind SpeedMPH, Mean Wind SpeedMPH, Max Gust SpeedMPH,PrecipitationIn, CloudCover, Events, WindDirDegrees
2014-3-1,9,0,-10,2,-7,-17,83,71,58,30.72,30.38,30.16,10,3,0,18,11,22,0.31,8,Snow,28
2014-3-2,5,-8,-21,-11,-17,-26,78,65,51,30.81,30.72,30.62,10,10,10,12,4,14,0.00,2,,188
2014-3-3,36,14,-9,22,6,-16,84,70,56,30.59,30.18,30.03,10,10,6,25,10,30,0.00,0,,183
2014-3-4,29,19,8,17,11,6,92,78,63,30.24,30.07,29.97,10,10,6,15,8,17,0.00,3,,41
2014-3-5,40,27,14,30,19,10,88,79,70,30.32,30.20,30.07,10,8,2,23,8,31,0.00,5,,156
2014-3-6,61,47,32,37,32,27,82,62,42,30.04,29.79,29.65,10,10,8,23,12,29,0.00,0,,229
2014-3-7,45,33,20,34,23,14,92,73,54,30.35,30.05,29.77,10,8,1,23,13,30,0.00,5,,2
2014-3-8,55,37,18,31,24,14,84,60,35,30.36,30.27,30.11,10,10,8,14,5,18,0.00,2,,233
2014-3-9,74,55,35,34,29,22,75,45,15,30.06,29.90,29.81,10,10,10,22,11,29,0.00,0,,262
2014-3-10,69,51,33,36,33,29,82,55,27,29.88,29.76,29.57,10,10,10,20,7,23,0.00,0,,235
2014-3-11,46,38,29,38,32,25,100,73,45,30.29,29.87,29.57,10,8,2,29,18,37,T,7,Snow,7
2014-3-12,55,41,27,28,24,19,85,56,26,30.27,30.19,30.10,10,10,10,26,13,40,0.00,1,,293
2014-3-13,66,46,26,26,24,21,85,48,12,30.09,29.88,29.68,10,10,10,20,11,29,0.00,0,,270
2014-3-14,62,46,30,26,23,16,78,49,20,29.99,29.89,29.80,10,10,10,20,9,24,0.00,1,,297
2014-3-15,40,32,24,30,24,20,88,64,39,30.46,30.06,29.77,10,9,1,20,10,23,T,6,Snow,25
2014-3-16,56,39,22,30,24,19,92,61,30,30.47,30.23,29.84,10,10,5,17,9,24,T,5,,210
2014-3-17,68,51,34,33,27,18,75,45,15,29.80,29.46,29.22,10,10,10,37,12,46,0.00,1,,238
2014-3-18,40,32,23,32,29,23,92,84,75,30.09,29.71,29.36,10,5,0,30,17,43,0.02,7,Fog-Snow,357
2014-3-19,52,36,20,29,21,15,88,56,24,30.12,30.07,30.02,10,9,4,25,9,32,0.00,1,,283
2014-3-20,64,43,22,28,19,10,81,47,12,30.01,29.87,29.73,10,10,9,30,8,43,0.00,0,,255
2014-3-21,43,35,26,28,24,19,78,65,51,30.37,30.11,29.86,10,10,10,30,15,39,0.00,6,,332
2014-3-22,26,19,11,18,11,9,88,75,62,30.61,30.47,30.36,10,5,1,15,9,20,0.02,8,Snow,4
2014-3-23,36,22,7,22,14,3,88,72,56,30.61,30.37,30.12,10,10,9,23,9,28,0.00,5,,195
2014-3-24,37,28,18,22,17,11,92,65,38,30.42,30.33,30.20,10,9,5,22,13,30,0.00,4,,323
2014-3-25,46,29,12,19,11,7,76,53,29,30.45,30.27,29.93,10,10,10,18,9,23,0.00,0,,235
2014-3-26,71,51,31,30,24,17,69,45,20,29.90,29.52,29.25,10,10,10,39,15,52,T,1,,202
2014-3-27,39,30,20,29,24,17,85,73,61,29.96,29.64,29.38,10,9,6,26,16,35,0.04,7,Rain,329
2014-3-28,29,23,16,22,20,15,91,80,68,30.31,30.11,29.98,10,7,0,15,7,19,0.10,7,Fog-Snow,68
2014-3-29,71,43,14,30,20,12,96,55,13,30.31,30.03,29.78,10,10,9,31,16,38,0.00,0,,211
2014-3-30,71,53,34,34,29,19,75,49,23,29.82,29.68,29.42,10,10,10,20,10,31,0.00,0,,106
2014-3-31,52,35,18,37,21,11,92,69,46,30.17,29.70,29.31,10,4,1,40,24,52,T,7,Snow,327